Mobile - Dauphin Island Weather Center

Moon Phase Calendar



Online Cameras

 


      

Current Conditions in Point Clear
10/27/2020 8:47:52 PM

78°F
Feels Like 85
Clouds
Humidity
88%
Pressure
30"
Wind
3.4 mph (E)
Dew Point
74°F
UV Index
6/10 (High)
Visibility
6 mi

Hourly Forecast

Date & Time Tue, Oct 27
8:00 PM
Tue, Oct 27
9:00 PM
Tue, Oct 27
10:00 PM
Tue, Oct 27
11:00 PM
Wed, Oct 28
12:00 AM
Wed, Oct 28
1:00 AM
Wed, Oct 28
2:00 AM
Wed, Oct 28
3:00 AM
Wed, Oct 28
4:00 AM
Wed, Oct 28
5:00 AM
Wed, Oct 28
6:00 AM
Wed, Oct 28
7:00 AM
Wed, Oct 28
8:00 AM
Wed, Oct 28
9:00 AM
Wed, Oct 28
10:00 AM
Wed, Oct 28
11:00 AM
Wed, Oct 28
12:00 PM
Wed, Oct 28
1:00 PM
Wed, Oct 28
2:00 PM
Wed, Oct 28
3:00 PM
Wed, Oct 28
4:00 PM
Wed, Oct 28
5:00 PM
Wed, Oct 28
6:00 PM
Wed, Oct 28
7:00 PM
Wed, Oct 28
8:00 PM
Wed, Oct 28
9:00 PM
Wed, Oct 28
10:00 PM
Wed, Oct 28
11:00 PM
Thu, Oct 29
12:00 AM
Thu, Oct 29
1:00 AM
Thu, Oct 29
2:00 AM
Thu, Oct 29
3:00 AM
Thu, Oct 29
4:00 AM
Thu, Oct 29
5:00 AM
Thu, Oct 29
6:00 AM
Thu, Oct 29
7:00 AM
Thu, Oct 29
8:00 AM
Thu, Oct 29
9:00 AM
Thu, Oct 29
10:00 AM
Thu, Oct 29
11:00 AM
Thu, Oct 29
12:00 PM
Thu, Oct 29
1:00 PM
Thu, Oct 29
2:00 PM
Thu, Oct 29
3:00 PM
Thu, Oct 29
4:00 PM
Thu, Oct 29
5:00 PM
Thu, Oct 29
6:00 PM
Thu, Oct 29
7:00 PM
Condition
Rain

Clouds

Clouds

Clouds

Clouds

Clouds

Rain

Rain

Rain

Rain

Rain

Rain

Rain

Rain

Rain

Rain

Rain

Rain

Rain

Rain

Rain

Rain

Rain

Rain

Rain

Rain

Rain

Rain

Rain

Rain

Clouds

Clouds

Clouds

Clouds

Clouds

Rain

Rain

Clouds

Clouds

Clouds

Clouds

Clouds

Clear

Clear

Clear

Clear

Clear

Clear
Temperature 78°F77°F77°F77°F77°F77°F77°F77°F77°F77°F77°F77°F77°F77°F78°F78°F78°F78°F78°F78°F78°F78°F79°F79°F79°F80°F79°F78°F78°F77°F76°F76°F75°F75°F75°F75°F74°F72°F71°F71°F71°F71°F71°F70°F70°F70°F68°F66°F
Feels Like 82°F81°F80°F80°F80°F80°F80°F80°F79°F79°F78°F78°F79°F79°F78°F78°F77°F76°F74°F73°F72°F70°F68°F65°F62°F60°F63°F66°F70°F71°F73°F74°F75°F75°F76°F74°F70°F66°F63°F62°F62°F61°F60°F61°F61°F62°F60°F58°F
Cloudiness 75%87%94%97%100%100%100%100%100%100%100%100%100%100%100%100%100%100%100%100%100%100%100%100%100%100%100%100%100%100%100%100%69%52%60%55%81%84%56%43%33%28%0%0%0%0%0%0%
Visibility 6 mi6 mi6 mi6 mi6 mi6 mi6 mi6 mi6 mi6 mi6 mi6 mi4 mi6 mi4 mi6 mi6 mi6 mi5 mi6 mi5 mi5 mi6 mi6 mi5 mi6 mi6 mi6 mi6 mi6 mi6 mi6 mi6 mi6 mi6 mi6 mi6 mi6 mi6 mi6 mi6 mi6 mi6 mi6 mi6 mi6 mi6 mi6 mi
Precipitation 67%69%62%55%51%51%51%59%75%90%83%90%87%97%100%100%100%100%100%100%100%100%100%100%92%99%100%100%100%100%25%21%13%13%9%29%29%16%8%0%0%0%0%0%0%0%0%0%
Humidity 88%87%86%87%87%88%90%90%88%87%89%88%89%91%89%88%86%86%86%88%87%86%84%82%81%81%84%85%86%87%87%88%89%89%90%91%87%78%65%57%49%46%49%51%53%54%59%65%
Dew Point 74°F73°F73°F73°F73°F74°F74°F74°F74°F73°F74°F73°F74°F74°F74°F74°F74°F74°F74°F74°F74°F74°F74°F73°F73°F73°F74°F74°F74°F73°F72°F72°F72°F71°F72°F72°F70°F65°F59°F55°F51°F50°F51°F52°F53°F53°F53°F54°F
Pressure 30"30"30"29.97"29.97"29.94"29.94"29.91"29.91"29.91"29.91"29.91"29.91"29.94"29.94"29.91"29.91"29.85"29.83"29.77"29.71"29.65"29.59"29.56"29.53"29.53"29.56"29.62"29.68"29.71"29.74"29.74"29.74"29.74"29.74"29.77"29.8"29.83"29.83"29.83"29.83"29.83"29.8"29.8"29.83"29.85"29.85"29.91"
Wind Speed 9.6 mph9.9 mph10.4 mph11.5 mph11.6 mph11.6 mph11.5 mph12.3 mph13.1 mph14.3 mph15.1 mph16.1 mph13.9 mph14.4 mph17 mph19.1 mph20.6 mph22.1 mph24 mph24.2 mph27.5 mph30.8 mph35.7 mph41 mph47.7 mph52 mph46.1 mph38.4 mph30.8 mph26.6 mph21.8 mph17.7 mph14.5 mph13.4 mph13.7 mph16.8 mph20.4 mph20.4 mph19.2 mph17.5 mph15.8 mph17.7 mph19.3 mph17.3 mph17 mph15.3 mph14.8 mph16.3 mph
Wind
Direction
111°
ESE
116°
ESE
117°
ESE
118°
ESE
117°
ESE
121°
ESE
121°
ESE
121°
ESE
122°
ESE
124°
SE
124°
SE
130°
SE
139°
SE
117°
ESE
118°
ESE
124°
SE
130°
SE
133°
SE
134°
SE
131°
SE
135°
SE
140°
SE
143°
SE
149°
SSE
162°
SSE
177°
S
199°
SSW
214°
SW
219°
SW
229°
SW
236°
SW
242°
WSW
246°
WSW
241°
WSW
234°
SW
238°
WSW
260°
W
253°
WSW
258°
WSW
264°
W
259°
W
249°
WSW
261°
W
254°
WSW
268°
W
282°
WNW
296°
WNW
310°
NW

Daily Forecast

Date High Low Precip. Humidity
Today
Oct 27

Rain
80 °F
73 °F
100%
86%
Wednesday
Oct 28

Rain
79 °F
77 °F
100%
86%
Thursday
Oct 29

Rain
77 °F
61 °F
100%
46%
Friday
Oct 30

Clouds
69 °F
58 °F
0%
61%
Saturday
Oct 31

Clouds
70 °F
58 °F
19%
71%
Sunday
Nov 1

Clouds
75 °F
66 °F
6%
65%
Monday
Nov 2

Clear
66 °F
53 °F
0%
41%
Tuesday
Nov 3

Clear
68 °F
54 °F
0%
35%
Wednesday
Nov 4

Clouds
70 °F
58 °F
0%
55%
Thursday
Nov 5

Clouds
72 °F
62 °F
11%
63%
Friday
Nov 6

Clouds
72 °F
62 °F
0%
47%
Saturday
Nov 7

Clear
74 °F
60 °F
0%
48%
Sunday
Nov 8

Clear
77 °F
64 °F
1%
66%
Monday
Nov 9

Rain
75 °F
69 °F
55%
79%
Tuesday
Nov 10

Clouds
76 °F
68 °F
5%
75%
Wednesday
Nov 11

Rain
77 °F
70 °F
29%
72%


Temperature 8-14 Day Outlook



Precipitation 8-14 Day Outlook




Quick Links
Mobile - Dauphin Island News
Mobile - Dauphin Island Photos
Mobile - Dauphin Island Videos




About Us
Contact Us
Site Map
Search Site
Advertise With Us
   
Mobile.USGulf.info
THE MOBILE - DAUPHIN ISLAND WEBSITE

Copyright 2020, Coastal Town
Privacy    |    Legal